Regional Weather Roundup
Issued by NWS

Home | Current Version | Previous Version | Text Only | Print | Product List | Glossary On
Versions: 1 2 3 4 5 6 7 8 9 10 11 12 13 14 15 16 17 18 19 20 21 22 23 24 25 26 27 28 29 30 31 32 33 34 35 36 37 38 39 40 41 42 43 44 45 46 47 48 49 50
000
ASUS43 KMPX 300701
RWRMN
WEATHER ROUNDUP FOR MINNESOTA
NATIONAL WEATHER SERVICE TWIN CITIES/CHANHASSEN MN
200 AM CDT MON MAY 30 2016


NOTE: "FAIR" INDICATES FEW OR NO CLOUDS BELOW 12,000 FEET WITH NO
SIGNIFICANT WEATHER AND/OR OBSTRUCTIONS TO VISIBILITY. N/A MEANS
CURRENT SKY AND/OR WEATHER CONDITIONS ARE NOT AVAILABLE.

MNZ060>063-068>070-300800-
   Twin Cities Metro

CITY           SKY/WX    TMP DP  RH WIND       PRES   REMARKS
TWIN CITIES    CLEAR     64  57  78 CALM      29.99S
ST PAUL        CLEAR     59  58  96 CALM      29.99S
CRYSTAL        CLEAR     57  55  93 CALM      29.98S FOG
BLAINE         FOG       57  57 100 CALM      30.00R VSB 1/2
EDEN PRAIRIE   CLEAR     62  58  86 CALM      29.98F
SOUTH ST PAUL  PTCLDY    62  57  82 CALM      29.99S
LAKE ELMO      FAIR      55  55 100 CALM      30.01R
$$
MNZ001>005-007-008-013>017-022>024-027-028-300800-
   Northwest Minnesota

CITY           SKY/WX    TMP DP  RH WIND       PRES   REMARKS
BEMIDJI        CLEAR     50  49  96 CALM      29.96S
HALLOCK        CLEAR     55  52  88 S3        29.90R
ROSEAU         CLEAR     52  46  82 CALM      29.92R
WARROAD        CLEAR     50  46  87 SW3       29.92R
THIEF RVR FALL CLEAR     54  48  82 S5        29.95R
CROOKSTON      CLEAR     52  52 100 S5        29.94S
FOSSTON        CLEAR     48  48 100 S5        29.96S
DETROIT LAKES  CLEAR     55  54  94 S3        29.99S
MOORHEAD       MOCLDY    61  48  63 SE3       29.96S
PARK RAPIDS    CLEAR     52  49  89 CALM      29.97S
MAHNOMEN       FAIR      53  48  83 S6        29.96S
$$
MNZ006-009>011-018-025>026-300800-
   North Central Minnesota

CITY           SKY/WX    TMP DP  RH WIND       PRES   REMARKS
BAUDETTE       CLEAR     48  46  93 SW5       29.91S FOG
FLAG ISLAND    CLEAR     55  52  88 NW3       29.89S
INTL FALLS     CLEAR     47  46  97 W3        29.90S
WASKISH        PTCLDY    52  52 100 CALM      29.93S
BIG FORK         N/A     46  46 100 CALM      29.94S FOG
LONGVILLE      CLEAR     48  46  93 CALM      29.97R
GRAND RAPIDS   CLEAR     57  51  80 S6        29.97R
CRANE LAKE     CLEAR     45  45 100 CALM      29.92S
ORR            CLEAR     50  48  93 CALM      29.90S
COOK           CLEAR     50  48  93 CALM      29.93R
WALKER         FAIR      51  50  95 CALM      29.97R
$$
MNZ012-019>021-037-300800-
   Northeast Minnesota

CITY           SKY/WX    TMP DP  RH WIND       PRES   REMARKS
DULUTH         CLEAR     51  48  89 W9        29.95R
ELY            PTCLDY    54  52  94 W5        29.91S
HIBBING        FOG       43  43 100 CALM      29.94R VSB 1/2
EVELETH        CLEAR     48  48 100 CALM      29.95S
DULUTH HARBOR  CLEAR     57  54  88 SW7       29.94S
TWO HARBORS    CLEAR     57  52  82 CALM      29.91S
SILVER BAY     CLEAR     55  52  88 CALM      29.90R
GRAND MARAIS     N/A     41  40  96 W6        29.87S
G MARAIS ARPRT CLEAR     50  46  87 SW3       29.89S
$$
MNZ029>031-032-039>041-046>048-054>057-064-300800-
   West Central Minnesota

CITY           SKY/WX    TMP DP  RH WIND       PRES   REMARKS
FERGUS FALLS   PTCLDY    61  48  63 SE3       29.94F
WHEATON        PTCLDY    61  48  63 SW5       29.98F
MORRIS         CLEAR     55  46  71 S5        29.97F
ALEXANDRIA     CLEAR     54  49  83 CALM      29.99F
ELBOW LAKE     FAIR      56  49  78 E6        29.98F
WADENA         CLEAR     52  46  82 CALM      29.98S
GLENWOOD       CLEAR     59  50  72 S3        30.00S
APPLETON       CLEAR     54  46  76 CALM      29.97F
ORTONVILLE     CLEAR     59  48  67 CALM      29.97F
MADISON        CLEAR     59  48  67 CALM      29.98F
WILLMAR        FAIR      57  52  82 CALM      30.01S
$$
MNZ033>034-036-042>043-049>051-058-059-300800-
   Central Minnesota

CITY           SKY/WX    TMP DP  RH WIND       PRES   REMARKS
ST CLOUD       CLEAR     52  51  97 CALM      29.98F
SAUK CENTRE    FAIR      51  48  91 CALM      29.99F
PAYNESVILLE    CLEAR     53  53 100 CALM      30.00F
AITKIN         CLEAR     52  46  82 CALM      29.96S FOG
PINE RIVER     CLEAR     48  48 100 CALM      30.01S
BRAINERD       PTCLDY    51  49  92 SW5       29.98S
STAPLES        CLEAR     52  48  87 S3        29.98F
LONG PRAIRIE   FAIR      52  52 100 CALM      30.00S
LITTLE FALLS   FOG       52  50  93 CALM      29.99S VSB 3/4
LITCHFIELD     CLEAR     59  55  88 CALM      30.00F
BUFFALO        CLEAR     56  53  91 CALM      30.00F
MAPLE LAKE     CLEAR     55  55  97 CALM      30.01S
HUTCHINSON     CLEAR     56  56  99 CALM      30.01S FOG
$$
MNZ037-044-045-052-053-300800-
   East Central Minnesota

CITY           SKY/WX    TMP DP  RH WIND       PRES   REMARKS
PRINCETON      CLEAR     52  52 100 CALM      29.99S FOG
MORA           FOG       50  50 100 CALM      30.00S VSB 1/2
CAMBRIDGE      CLEAR     55  48  76 CALM      29.98R
RUSH CITY      MOCLDY    51  50  96 CALM      29.99S FOG
MOOSE LAKE     PTCLDY    50  48  93 SW3       29.96R
HINCKLEY       FAIR      50  50 100 CALM      29.98R
CLOQUET        CLEAR     55  48  76 W6        29.96R
MCGREGOR       PTCLDY    54  52  94 CALM      29.98R
$$
MNZ071>073-080-081-089-090-097-098-300800-
   Southwest Minnesota

CITY           SKY/WX    TMP DP  RH WIND       PRES   REMARKS
MONTEVIDEO     CLEAR     57  46  67 CALM      30.00F
GRANITE FALLS  CLEAR     61  51  71 E3        30.00F
CANBY          CLEAR     61  52  71 SW5       29.99F
MARSHALL       PTCLDY    59  52  77 S6        29.99F
REDWOOD FALLS  CLEAR     60  49  66 CALM      29.99F
OLIVIA         CLEAR     59  50  72 CALM      29.99F
PIPESTONE      CLEAR     61  50  67 CALM      30.01S
WINDOM         CLEAR     57  52  82 CALM      30.02F
WORTHINGTON    CLEAR     60  54  80 CALM      30.03F
JACKSON        CLEAR     59  50  72 CALM      30.03F
TRACY          CLEAR     62  53  72 SW6       30.00F
SLAYTON        CLEAR     60  51  72 CALM      30.03S
$$
MNZ065>067-074>077-082>085-091>093-300800-
   South Central Minnesota

CITY           SKY/WX    TMP DP  RH WIND       PRES   REMARKS
MANKATO        CLEAR     61  55  82 CALM      30.01S
NEW ULM        CLEAR     57  54  88 SW9       30.01S
ST JAMES       CLEAR     54  50  87 CALM      30.02S
FAIRMONT       CLEAR     59  52  77 CALM      30.02S
GLENCOE        CLEAR     60  59  98 CALM      30.00S
FARIBAULT      MOCLDY    55  55 100 CALM      30.01F VSB 1/2
OWATONNA       CLEAR     59  55  88 CALM      30.02S
WASECA         CLEAR     54  52  94 CALM      30.03S
ALBERT LEA     CLEAR     57  55  94 CALM      30.03R
$$
MNZ078>079-086>088-094>096-300800-
   Southeast Minnesota

CITY           SKY/WX    TMP DP  RH WIND       PRES   REMARKS
ROCHESTER      CLEAR     61  56  83 W7        30.02S
RED WING       CLEAR     57  55  94 CALM      29.98F
STANTON        CLEAR     55  53  91 CALM      29.99S
DODGE CENTER   PTCLDY    55  54  94 SW5       30.02S
WINONA         CLEAR     59  57  94 CALM      29.99S
AUSTIN         CLEAR     57  54  88 CALM      30.02S
PRESTON        CLEAR     60  56  87 W6        30.03S
$$
ABBREVIATIONS USED IN REMARKS
   TC - TEMPERATURES IN CELSIUS
  WCI - WIND CHILL INDEX
   HX - HEAT INDEX
  VSB - VISIBILITY
$$




USA.gov is the U.S. government's official web portal to all federal, state and local government web resources and services.